Location: Newark
(48.9320°N, 2.2664°E)
Time: 15:02:55
(UTC+00:00)

Vanguard 1 Rocket - Pass Details

Date: 24 February 2020
Orbit: 650 x 4227 km, 34.3° (Epoch: 30 March)

Event Time Altitude Azimuth Distance (km) Brightness Sun altitude
Rises 23:42:20 0° 208° (SSW) 6,295 - -50.2°
Reaches altitude 10° 23:49:48 10° 187° (S) 4,386 - -50.3°
Maximum altitude 23:54:29 14° 162° (SSE) 3,508 - -50.4°
Drops below altitude 10° 23:58:12 10° 135° (SE) 3,310 - -50.4°
Sets 00:02:15 0° 109° (ESE) 3,777 - -50.4°
